Antelope Reservoir Weather Center

Moon Phase Calendar



Antelope Reservoir Water Level
Online Cameras

 


      

Current Conditions in Burney
6/23/2021 11:17:54 PM

58°F
Feels Like 56
Clouds
Humidity
47%
Pressure
29.97"
Wind
3.2 mph (S)
Dew Point
38°F
UV Index
0/10 (Low)
Visibility
6 mi

Hourly Forecast

Date & Time Wed, Jun 23
11:00 PM
Thu, Jun 24
12:00 AM
Thu, Jun 24
1:00 AM
Thu, Jun 24
2:00 AM
Thu, Jun 24
3:00 AM
Thu, Jun 24
4:00 AM
Thu, Jun 24
5:00 AM
Thu, Jun 24
6:00 AM
Thu, Jun 24
7:00 AM
Thu, Jun 24
8:00 AM
Thu, Jun 24
9:00 AM
Thu, Jun 24
10:00 AM
Thu, Jun 24
11:00 AM
Thu, Jun 24
12:00 PM
Thu, Jun 24
1:00 PM
Thu, Jun 24
2:00 PM
Thu, Jun 24
3:00 PM
Thu, Jun 24
4:00 PM
Thu, Jun 24
5:00 PM
Thu, Jun 24
6:00 PM
Thu, Jun 24
7:00 PM
Thu, Jun 24
8:00 PM
Thu, Jun 24
9:00 PM
Thu, Jun 24
10:00 PM
Thu, Jun 24
11:00 PM
Fri, Jun 25
12:00 AM
Fri, Jun 25
1:00 AM
Fri, Jun 25
2:00 AM
Fri, Jun 25
3:00 AM
Fri, Jun 25
4:00 AM
Fri, Jun 25
5:00 AM
Fri, Jun 25
6:00 AM
Fri, Jun 25
7:00 AM
Fri, Jun 25
8:00 AM
Fri, Jun 25
9:00 AM
Fri, Jun 25
10:00 AM
Fri, Jun 25
11:00 AM
Fri, Jun 25
12:00 PM
Fri, Jun 25
1:00 PM
Fri, Jun 25
2:00 PM
Fri, Jun 25
3:00 PM
Fri, Jun 25
4:00 PM
Fri, Jun 25
5:00 PM
Fri, Jun 25
6:00 PM
Fri, Jun 25
7:00 PM
Fri, Jun 25
8:00 PM
Fri, Jun 25
9:00 PM
Fri, Jun 25
10:00 PM
Condition
Clouds

Clouds

Clouds

Clouds

Clouds

Clouds

Clouds

Clear

Clear

Clear

Clouds

Clouds

Clouds

Clouds

Clouds

Clouds

Clouds

Clouds

Rain

Rain

Rain

Clouds

Clouds

Clouds

Clouds

Clouds

Clouds

Clouds

Clouds

Clouds

Clouds

Clouds

Clear

Clear

Clear

Clear

Clear

Clear

Clear

Clear

Clear

Clear

Clear

Clouds

Clouds

Clouds

Clouds

Clouds
Temperature 58°F58°F57°F56°F54°F53°F52°F52°F60°F67°F72°F77°F81°F84°F85°F86°F86°F85°F80°F69°F66°F62°F59°F57°F57°F58°F56°F55°F54°F54°F53°F53°F60°F67°F73°F78°F83°F86°F89°F91°F92°F92°F92°F90°F88°F80°F72°F68°F
Feels Like 56°F55°F55°F53°F52°F50°F49°F50°F58°F65°F71°F76°F79°F81°F82°F82°F82°F82°F80°F68°F65°F61°F58°F56°F56°F57°F55°F54°F53°F52°F51°F52°F59°F66°F71°F77°F81°F83°F85°F87°F88°F88°F87°F86°F85°F79°F70°F66°F
Cloudiness 60%58%60%52%41%30%25%0%1%9%29%39%47%40%41%42%45%49%54%100%100%100%99%90%87%97%84%72%61%52%46%12%7%6%6%7%6%7%5%6%6%7%8%15%21%17%17%16%
Visibility 6 mi6 mi6 mi6 mi6 mi6 mi6 mi6 mi6 mi6 mi6 mi6 mi6 mi6 mi6 mi6 mi6 mi6 mi6 mi6 mi6 mi6 mi6 mi6 mi6 mi6 mi6 mi6 mi6 mi6 mi6 mi6 mi6 mi6 mi6 mi6 mi6 mi6 mi6 mi6 mi6 mi6 mi6 mi6 mi6 mi6 mi6 mi6 mi
Precipitation 0%5%5%3%2%2%0%0%0%0%0%0%0%0%0%0%3%8%24%52%54%64%59%59%55%0%0%0%0%0%0%0%0%0%0%0%0%0%0%0%0%0%0%0%0%0%0%0%
Humidity 47%48%48%49%51%53%54%53%43%34%28%23%20%17%16%16%17%18%29%54%63%72%80%84%79%74%74%74%73%73%73%72%59%46%37%29%24%20%18%17%16%15%15%16%17%26%33%38%
Dew Point 38°F38°F38°F37°F37°F35°F34°F34°F36°F37°F37°F36°F35°F34°F34°F34°F35°F36°F40°F47°F52°F52°F52°F51°F49°F49°F47°F46°F45°F44°F43°F43°F45°F45°F44°F43°F41°F40°F39°F39°F38°F38°F37°F37°F38°F42°F40°F40°F
Pressure 29.97"29.97"30"30"30.03"30.03"30.03"30.03"30.03"30"30"29.97"29.94"29.91"29.88"29.85"29.85"29.83"29.88"29.97"30"30.03"30.06"30.06"30.06"30.03"30.06"30.06"30.06"30.03"30.06"30.06"30.03"30"30"29.97"29.94"29.91"29.88"29.85"29.83"29.83"29.8"29.8"29.8"29.85"29.91"29.94"
Wind Speed 3.2 mph3.5 mph4.1 mph3.7 mph3.3 mph3.2 mph3 mph2.8 mph1.3 mph1.5 mph2 mph3.7 mph4.7 mph4.9 mph5.8 mph7.8 mph10.1 mph12.5 mph8 mph8.4 mph3.1 mph3.6 mph4.7 mph5.3 mph3.3 mph2.2 mph3.4 mph3.4 mph2.3 mph2.3 mph2 mph2.7 mph1.8 mph1.6 mph3.1 mph3.7 mph4.2 mph4.9 mph5.5 mph6.1 mph6.9 mph7.4 mph6.9 mph5.6 mph4.9 mph3.9 mph3.4 mph2.2 mph
Wind
Direction
179°
S
159°
SSE
158°
SSE
180°
S
187°
S
175°
S
163°
SSE
161°
SSE
148°
SSE
359°
N
322°
NW
329°
NNW
324°
NW
311°
NW
301°
WNW
289°
WNW
271°
W
267°
W
239°
WSW
157°
SSE
49°
NE
41°
NE
133°
SE
155°
SSE
176°
S
219°
SW
159°
SSE
169°
S
170°
S
174°
S
164°
SSE
158°
SSE
158°
SSE
22°
NNE
14°
NNE
12°
NNE
11°
N
355°
N
350°
N
347°
NNW
342°
NNW
340°
NNW
335°
NNW
321°
NW
300°
WNW
270°
W
235°
SW
206°
SSW

Daily Forecast

Date High Low Precip. Humidity
Today
Jun 23

Clear
85 °F
52 °F
0%
16%
Thursday
Jun 24

Rain
86 °F
52 °F
64%
16%
Friday
Jun 25

Clear
92 °F
53 °F
0%
17%
Saturday
Jun 26

Clear
97 °F
59 °F
0%
12%
Sunday
Jun 27

Clear
103 °F
66 °F
0%
12%
Monday
Jun 28

Clear
105 °F
66 °F
4%
11%
Tuesday
Jun 29

Rain
106 °F
67 °F
33%
8%
Wednesday
Jun 30

Rain
104 °F
64 °F
73%
12%
Thursday
Jul 1

Rain
94 °F
62 °F
36%
16%
Friday
Jul 2

Clear
94 °F
61 °F
31%
16%
Saturday
Jul 3

Rain
96 °F
61 °F
25%
15%
Sunday
Jul 4

Clear
95 °F
63 °F
0%
14%
Monday
Jul 5

Clear
93 °F
59 °F
0%
12%
Tuesday
Jul 6

Clear
95 °F
56 °F
0%
13%
Wednesday
Jul 7

Clear
99 °F
57 °F
0%
9%
Thursday
Jul 8

Clear
98 °F
62 °F
0%
10%

Temperature 8-14 Day Outlook



Precipitation 8-14 Day Outlook




Quick Links
Antelope Reservoir News
Antelope Reservoir Photos
Antelope Reservoir Videos




About Us
Contact Us
Site Map
Search Site
Advertise With Us
   
Antelope.LakesOnline.com
THE ANTELOPE RESERVOIR WEBSITE

Copyright 2021, Lakes Online
Privacy    |    Legal